Location: *
(2.5500°S, 65.9667°W)
Time: 06:49:28
(UTC+00:00)

H-2A R/B - Visible Passes

Search period start: 17 May 2022 00:00
Search period end: 27 May 2022 00:00
Orbit: 576 x 653 km, 98.5° (Epoch: 16 May)

Date Brightness Start Highest point End Pass type
(mag) Time Alt. Az. Time Alt. Az. Time Alt. Az.
17 May 4.7 00:47:25 10° NW 00:48:50 16° NW 00:48:50 16° NW visible
17 May 3.8 23:26:38 10° NE 23:27:33 15° NE 23:27:33 15° NE visible
18 May 3.5 23:41:41 10° NNE 23:43:19 22° NE 23:43:19 22° NE visible
19 May 3.2 23:57:02 10° NNE 23:59:06 29° NNE 23:59:06 29° NNE visible
21 May 3.4 00:12:37 10° N 00:14:51 31° N 00:14:51 31° N visible
22 May 3.9 00:28:27 10° NNW 00:30:37 26° NW 00:30:37 26° NW visible
23 May 4.5 00:44:36 10° NNW 00:46:23 18° NW 00:46:23 18° NW visible
23 May 3.9 23:24:17 10° NE 23:25:06 14° ENE 23:25:06 14° ENE visible
24 May 5.1 01:01:23 10° NW 01:02:09 12° WNW 01:02:09 12° WNW visible
24 May 3.5 23:39:14 10° NE 23:40:52 21° NE 23:40:52 21° NE visible
25 May 3.2 23:54:30 10° NNE 23:56:38 30° NNE 23:56:38 30° NNE visible
